| time (UTC) | temp F | wind direction | speed MPH | gust MPH | rain 1hr in | rain 24hr in | rain mn in | humidity % | barometer mb |
| 20260506234536 | 45 | 342 | 1.0 | 2.0 | 0.00 | 0.00 | 0.00 | 90 | |
| 20260506233531 | 45 | 342 | 1.0 | 2.0 | 0.00 | 0.00 | 0.00 | 90 | |
| 20260506232534 | 46 | 342 | 0.0 | 2.0 | 0.00 | 0.00 | 0.00 | 90 | |
| 20260506231547 | 46 | 342 | 0.0 | 4.0 | 0.00 | 0.00 | 0.00 | 90 | |
| 20260506230531 | 47 | 342 | 2.0 | 3.0 | 0.00 | 0.00 | 0.00 | 90 | |
| 20260506225544 | 47 | 342 | 2.0 | 4.0 | 0.00 | 0.00 | 0.00 | 89 | |
| 20260506224544 | 48 | 342 | 0.0 | 2.0 | 0.00 | 0.00 | 0.00 | 89 | |
| 20260506223535 | 48 | 342 | 2.0 | 3.0 | 0.00 | 0.00 | 0.00 | 89 | |
| 20260506222610 | 49 | 342 | 1.0 | 5.0 | 0.00 | 0.00 | 0.00 | 89 | |
| 20260506221532 | 49 | 342 | 1.0 | 4.0 | 0.00 | 0.00 | 0.00 | 89 | |
| 20260506220535 | 49 | 343 | 2.0 | 5.0 | 0.00 | 0.00 | 0.00 | 89 | |
| 20260506215528 | 49 | 344 | 2.0 | 6.0 | 0.00 | 0.00 | 0.00 | 89 | |
| 20260506214533 | 49 | 344 | 3.0 | 5.0 | 0.00 | 0.00 | 0.00 | 89 | |
| 20260506213542 | 49 | 345 | 0.0 | 5.0 | 0.00 | 0.00 | 0.00 | 89 | |
| 20260506212527 | 49 | 327 | 3.0 | 6.0 | 0.00 | 0.00 | 0.00 | 89 | |
| 20260506211540 | 49 | 321 | 5.0 | 6.0 | 0.00 | 0.00 | 0.00 | 88 | |
| 20260506210543 | 50 | 323 | 0.0 | 6.0 | 0.00 | 0.00 | 0.00 | 88 | |
| 20260506205535 | 50 | 323 | 3.0 | 6.0 | 0.00 | 0.00 | 0.00 | 87 | |
| 20260506204548 | 50 | 325 | 3.0 | 7.0 | 0.00 | 0.00 | 0.00 | 87 | |
| 20260506203532 | 50 | 333 | 3.0 | 7.0 | 0.00 | 0.00 | 0.00 | 87 | |
| 20260506202532 | 51 | 342 | 5.0 | 7.0 | 0.00 | 0.00 | 0.00 | 87 | |
| 20260506201526 | 51 | 346 | 4.0 | 6.0 | 0.00 | 0.00 | 0.00 | 86 | |
| 20260506200559 | 51 | 327 | 5.0 | 8.0 | 0.00 | 0.00 | 0.00 | 86 | |
| 20260506195521 | 51 | 317 | 3.0 | 7.0 | 0.00 | 0.00 | 0.00 | 85 | |
| 20260506194525 | 52 | 340 | 3.0 | 8.0 | 0.00 | 0.00 | 0.00 | 85 | |
| 20260506193600 | 52 | 327 | 4.0 | 7.0 | 0.00 | 0.00 | 0.00 | 84 | |
| 20260506192531 | 52 | 332 | 5.0 | 8.0 | 0.00 | 0.00 | 0.00 | 84 | |
| 20260506191531 | 53 | 342 | 3.0 | 9.0 | 0.00 | 0.00 | 0.00 | 83 | |
| 20260506190545 | 53 | 5 | 5.0 | 10.0 | 0.00 | 0.00 | 0.00 | 82 | |
| 20260506185530 | 54 | 13 | 5.0 | 13.0 | 0.00 | 0.00 | 0.00 | 81 | |
| 20260506184544 | 54 | 334 | 10.0 | 13.0 | 0.00 | 0.00 | 0.00 | 80 | |
| 20260506183527 | 54 | 40 | 10.0 | 15.0 | 0.00 | 0.00 | 0.00 | 79 | |
| 20260506182541 | 55 | 9 | 5.0 | 13.0 | 0.00 | 0.00 | 0.00 | 79 | |
| 20260506181523 | 55 | 5 | 6.0 | 14.0 | 0.00 | 0.00 | 0.00 | 78 | |
| 20260506180526 | 55 | 355 | 10.0 | 15.0 | 0.00 | 0.00 | 0.00 | 78 | |
| 20260506175535 | 55 | 360 | 9.0 | 15.0 | 0.00 | 0.00 | 0.00 | 79 | |
| 20260506174550 | 55 | 9 | 8.0 | 14.0 | 0.00 | 0.00 | 0.00 | 79 | |
| 20260506173533 | 55 | 10 | 7.0 | 15.0 | 0.00 | 0.00 | 0.00 | 78 | |
| 20260506172537 | 55 | 339 | 9.0 | 14.0 | 0.00 | 0.00 | 0.00 | 78 | |
| 20260506171550 | 55 | 351 | 9.0 | 15.0 | 0.00 | 0.00 | 0.00 | 77 | |
| 20260506170542 | 55 | 5 | 10.0 | 18.0 | 0.00 | 0.00 | 0.00 | 77 | |
| 20260506165524 | 55 | 13 | 8.0 | 18.0 | 0.00 | 0.00 | 0.00 | 77 | |
| 20260506164533 | 55 | 360 | 8.0 | 15.0 | 0.00 | 0.00 | 0.00 | 76 | |
| 20260506163536 | 56 | 355 | 11.0 | 19.0 | 0.00 | 0.00 | 0.00 | 75 | |
| 20260506162529 | 56 | 355 | 13.0 | 18.0 | 0.00 | 0.00 | 0.00 | 74 | |
| 20260506161533 | 57 | 350 | 11.0 | 20.0 | 0.00 | 0.00 | 0.00 | 72 | |
| 20260506160546 | 58 | 355 | 11.0 | 16.0 | 0.00 | 0.00 | 0.00 | 73 | |
| 20260506155528 | 58 | 355 | 10.0 | 21.0 | 0.00 | 0.00 | 0.00 | 73 | |
| 20260506154541 | 58 | 350 | 9.0 | 19.0 | 0.00 | 0.00 | 0.00 | 74 | |
| 20260506153526 | 57 | 5 | 13.0 | 18.0 | 0.00 | 0.00 | 0.00 | 75 | |
| 20260506152536 | 57 | 5 | 12.0 | 16.0 | 0.00 | 0.00 | 0.00 | 74 | |
| 20260506151539 | 58 | 18 | 12.0 | 18.0 | 0.00 | 0.00 | 0.00 | 75 | |
| 20260506150533 | 58 | 360 | 12.0 | 19.0 | 0.00 | 0.00 | 0.00 | 75 | |
| 20260506145606 | 58 | 15 | 12.0 | 20.0 | 0.00 | 0.00 | 0.00 | 73 | |
| 20260506144529 | 58 | 355 | 12.0 | 19.0 | 0.00 | 0.00 | 0.00 | 74 | |
| 20260506143544 | 58 | 15 | 9.0 | 16.0 | 0.00 | 0.00 | 0.00 | 75 | |
| 20260506142526 | 57 | 5 | 9.0 | 18.0 | 0.00 | 0.00 | 0.00 | 75 | |
| 20260506141556 | 57 | 9 | 10.0 | 18.0 | 0.00 | 0.00 | 0.00 | 74 | |
| 20260506140608 | 57 | 17 | 11.0 | 18.0 | 0.00 | 0.00 | 0.00 | 73 | |
| 20260506135550 | 58 | 5 | 12.0 | 22.0 | 0.00 | 0.00 | 0.00 | 73 | |
| 20260506134543 | 58 | 355 | 10.0 | 18.0 | 0.00 | 0.00 | 0.00 | 73 | |
| 20260506133527 | 58 | 30 | 9.0 | 20.0 | 0.00 | 0.00 | 0.00 | 73 | |
| 20260506132538 | 58 | 355 | 14.0 | 19.0 | 0.00 | 0.00 | 0.00 | 73 | |
| 20260506131536 | 58 | 5 | 12.0 | 21.0 | 0.00 | 0.00 | 0.00 | 73 | |
| 20260506130546 | 57 | 34 | 12.0 | 19.0 | 0.00 | 0.00 | 0.00 | 73 | |
| 20260506125524 | 57 | 5 | 10.0 | 16.0 | 0.00 | 0.00 | 0.00 | 75 | |
| 20260506124538 | 57 | 16 | 12.0 | 20.0 | 0.00 | 0.00 | 0.00 | 76 | |
| 20260506123611 | 57 | 355 | 13.0 | 19.0 | 0.00 | 0.00 | 0.00 | 77 | |
| 20260506122533 | 56 | 325 | 7.0 | 19.0 | 0.00 | 0.00 | 0.00 | 78 | |
| 20260506121549 | 56 | 351 | 11.0 | 18.0 | 0.00 | 0.00 | 0.00 | 79 | |
| 20260506120531 | 56 | 9 | 11.0 | 18.0 | 0.00 | 0.00 | 0.00 | 79 | |
| 20260506115600 | 56 | 360 | 9.0 | 15.0 | 0.00 | 0.00 | 0.00 | 79 | |
| 20260506114542 | 55 | 355 | 11.0 | 19.0 | 0.00 | 0.00 | 0.00 | 79 | |
| 20260506113535 | 55 | 317 | 11.0 | 16.0 | 0.00 | 0.00 | 0.00 | 79 | |
| 20260506112550 | 56 | 17 | 13.0 | 20.0 | 0.00 | 0.00 | 0.00 | 80 | |
| 20260506111552 | 55 | 333 | 13.0 | 20.0 | 0.00 | 0.00 | 0.00 | 80 | |
| 20260506110545 | 55 | 13 | 11.0 | 18.0 | 0.00 | 0.00 | 0.00 | 79 | |
| 20260506105524 | 55 | 18 | 10.0 | 18.0 | 0.00 | 0.00 | 0.00 | 81 | |
| 20260506104557 | 54 | 17 | 14.0 | 20.0 | 0.00 | 0.00 | 0.00 | 81 | |
| 20260506103539 | 54 | 5 | 13.0 | 18.0 | 0.00 | 0.00 | 0.00 | 82 | |
| 20260506102532 | 53 | 17 | 12.0 | 18.0 | 0.00 | 0.00 | 0.00 | 83 | |
| 20260506101537 | 53 | 18 | 9.0 | 19.0 | 0.00 | 0.00 | 0.00 | 83 | |
| 20260506100550 | 53 | 348 | 11.0 | 18.0 | 0.00 | 0.00 | 0.00 | 84 | |
| 20260506095532 | 52 | 355 | 10.0 | 16.0 | 0.00 | 0.00 | 0.00 | 85 | |
| 20260506094522 | 52 | 355 | 10.0 | 15.0 | 0.00 | 0.00 | 0.00 | 85 | |
| 20260506093527 | 52 | 28 | 11.0 | 19.0 | 0.00 | 0.00 | 0.00 | 83 | |
| 20260506092539 | 52 | 22 | 11.0 | 19.0 | 0.00 | 0.00 | 0.00 | 83 | |
| 20260506091524 | 52 | 42 | 11.0 | 18.0 | 0.00 | 0.00 | 0.00 | 81 | |
| 20260506090537 | 52 | 5 | 14.0 | 19.0 | 0.00 | 0.00 | 0.00 | 81 | |
| 20260506085541 | 52 | 34 | 11.0 | 20.0 | 0.00 | 0.00 | 0.00 | 80 | |
| 20260506084534 | 52 | 9 | 8.0 | 15.0 | 0.00 | 0.00 | 0.00 | 82 | |
| 20260506083539 | 52 | 13 | 11.0 | 20.0 | 0.00 | 0.00 | 0.00 | 80 | |
| 20260506082548 | 53 | 28 | 11.0 | 16.0 | 0.00 | 0.00 | 0.00 | 81 | |
| 20260506081532 | 53 | 355 | 11.0 | 20.0 | 0.00 | 0.00 | 0.00 | 80 | |
| 20260506080544 | 53 | 5 | 10.0 | 19.0 | 0.00 | 0.00 | 0.00 | 81 | |
| 20260506072533 | 52 | 28 | 13.0 | 21.0 | 0.00 | 0.00 | 0.00 | 82 | |
| 20260506071602 | 52 | 13 | 12.0 | 19.0 | 0.00 | 0.00 | 0.00 | 81 | |
| 20260506070524 | 53 | 5 | 11.0 | 19.0 | 0.00 | 0.00 | 0.00 | 82 | |
| 20260506061524 | 50 | 5 | 11.0 | 16.0 | 0.00 | 0.00 | 0.00 | 85 | |
| 20260506060532 | 50 | 360 | 10.0 | 14.0 | 0.00 | 0.00 | 0.00 | 86 | |
| 20260506050540 | 48 | 5 | 8.0 | 12.0 | 0.00 | 0.00 | 0.00 | 86 | |
| 20260506044532 | 48 | 337 | 7.0 | 11.0 | 0.00 | 0.00 | 0.00 | 87 | |
| 20260506043606 | 48 | 360 | 7.0 | 10.0 | 0.00 | 0.00 | 0.00 | 87 | |
| 20260506042528 | 48 | 10 | 6.0 | 10.0 | 0.00 | 0.00 | 0.00 | 87 | |
| 20260506041531 | 47 | 5 | 6.0 | 8.0 | 0.00 | 0.00 | 0.00 | 86 | |
| 20260506040525 | 47 | 5 | 6.0 | 8.0 | 0.00 | 0.00 | 0.00 | 86 | |
| 20260506035558 | 47 | 5 | 6.0 | 9.0 | 0.00 | 0.00 | 0.00 | 86 | |
| 20260506034522 | 47 | 26 | 6.0 | 12.0 | 0.00 | 0.00 | 0.00 | 86 | |
| 20260506033523 | 47 | 5 | 6.0 | 9.0 | 0.00 | 0.00 | 0.00 | 86 | |
| 20260506032535 | 47 | 18 | 8.0 | 10.0 | 0.00 | 0.00 | 0.00 | 86 | |
| 20260506031548 | 48 | 19 | 6.0 | 9.0 | 0.00 | 0.00 | 0.00 | 86 | |
| 20260506030532 | 48 | 25 | 7.0 | 12.0 | 0.00 | 0.00 | 0.00 | 86 | |
| 20260506025545 | 48 | 17 | 7.0 | 12.0 | 0.00 | 0.00 | 0.00 | 86 | |
| 20260506024528 | 48 | 9 | 6.0 | 12.0 | 0.00 | 0.00 | 0.00 | 86 | |
| 20260506023532 | 48 | 10 | 7.0 | 10.0 | 0.00 | 0.00 | 0.00 | 86 | |
| 20260506022526 | 48 | 15 | 7.0 | 11.0 | 0.00 | 0.00 | 0.00 | 86 | |
| 20260506021525 | 48 | 17 | 7.0 | 12.0 | 0.00 | 0.00 | 0.00 | 86 | |
| 20260506020559 | 48 | 20 | 7.0 | 11.0 | 0.00 | 0.00 | 0.00 | 87 | |
| 20260506015522 | 47 | 12 | 7.0 | 12.0 | 0.00 | 0.00 | 0.00 | 87 | |
| 20260506014556 | 47 | 17 | 7.0 | 12.0 | 0.00 | 0.00 | 0.00 | 87 | |
| 20260506013527 | 48 | 23 | 7.0 | 11.0 | 0.00 | 0.00 | 0.00 | 87 | |
| 20260506012531 | 48 | 15 | 6.0 | 11.0 | 0.00 | 0.00 | 0.00 | 87 | |
| 20260506011544 | 48 | 12 | 8.0 | 12.0 | 0.00 | 0.00 | 0.00 | 87 | |
| 20260506010523 | 48 | 18 | 7.0 | 11.0 | 0.00 | 0.00 | 0.00 | 87 | |
| 20260506005537 | 48 | 19 | 7.0 | 10.0 | 0.00 | 0.00 | 0.00 | 87 | |
| 20260506004541 | 48 | 22 | 8.0 | 11.0 | 0.00 | 0.00 | 0.00 | 86 | |
| 20260506003524 | 48 | 20 | 8.0 | 11.0 | 0.00 | 0.00 | 0.00 | 86 | |
| 20260506002537 | 48 | 13 | 8.0 | 11.0 | 0.00 | 0.00 | 0.00 | 86 | |
| 20260506001550 | 48 | 15 | 7.0 | 12.0 | 0.00 | 0.00 | 0.00 | 86 | |
| 20260506000534 | 49 | 360 | 8.0 | 11.0 | 0.00 | 0.00 | 0.00 | 86 | |
| 20260505235538 | 49 | 19 | 8.0 | 12.0 | 0.00 | 0.00 | 0.00 | 86 |